Klawock, AK

3:23 AM AKST on December 16, 2017 (GMT -0900)
Klawock

Weather History for PAKW - March, 2014

Change the Weather History Date:

Saturday, March 15, 2014

  Actual Average Record
Temperature  
Mean Temperature 39 °F -  
Max Temperature 42 °F 41 °F 57 °F (2003)
Min Temperature 36 °F 29 °F 9 °F (2006)
Degree Days  
Heating Degree Days 26    
Moisture  
Dew Point 37 °F    
Average Humidity 90    
Maximum Humidity 97    
Minimum Humidity 82    
Precipitation  
Precipitation 0.42 in - - ()
Sea Level Pressure  
Sea Level Pressure 29.46 in    
Wind  
Wind Speed 5 mph (NNE)    
Max Wind Speed 15 mph    
Max Gust Speed 25 mph    
Visibility 9 miles    
Events Rain    
Averages and records for this station are not official NWS values.
T = Trace of Precipitation, MM = Missing Value Source: NWS Daily Summary

Daily Weather History Graph

Daily Weather History Graph

Search for Another Location

Airport or City:

Trip Planner

Search our weather history database for the weather conditions in past years. The results will help you decide how hot, cold, wet, or windy it might be!

Date:

Astronomy

Mar. 15, 2014 Rise Set
Actual Time 7:07 AM AKDT 6:56 PM AKDT
Civil Twilight 6:30 AM AKDT 7:33 PM AKDT
Nautical Twilight 5:47 AM AKDT 8:16 PM AKDT
Astronomical Twilight 5:02 AM AKDT 9:01 PM AKDT
Moon 6:22 PM AKDT (3/15) 6:27 AM AKDT (3/15)
Length of Visible Light 13h 02m
Length of Day
11h 49m
Waxing Gibbous, 99% of the Moon is Illuminated
Mar 15
Waxing Gibbous
Mar 16
Full
Mar 23
Last Quarter
Mar 30
New
Apr 7
First Quarter

Hourly Weather History & Observations

Time (AKDT) Temp. Windchill Dew Point Humidity Pressure Visibility Wind Dir Wind Speed Gust Speed Precip Events Conditions
12:53 AM 36.0 °F 33.3 °F 30.9 °F 82% 29.88 in 10.0 mi NNE 3.5 mph - N/A   Overcast
1:53 AM 36.0 °F 32.1 °F 32.0 °F 86% 29.86 in 10.0 mi North 4.6 mph - N/A   Overcast
2:53 AM 37.0 °F 31.0 °F 32.0 °F 82% 29.81 in 10.0 mi North 8.1 mph - N/A   Overcast
3:53 AM 37.0 °F 31.0 °F 33.1 °F 86% 29.74 in 10.0 mi NNE 8.1 mph - N/A   Overcast
4:53 AM 37.0 °F 30.4 °F 34.0 °F 89% 29.67 in 10.0 mi NE 9.2 mph - N/A   Overcast
5:53 AM 39.0 °F 31.0 °F 34.0 °F 82% 29.59 in 10.0 mi NNE 13.8 mph 18.4 mph 0.00 in Rain Light Rain
6:53 AM 37.0 °F 28.1 °F 34.0 °F 89% 29.51 in 9.0 mi NNE 15.0 mph 23.0 mph 0.02 in Rain Light Rain
7:53 AM 37.0 °F 28.1 °F 33.1 °F 86% 29.45 in 6.0 mi NE 15.0 mph 23.0 mph 0.02 in Rain Light Rain
8:53 AM 37.0 °F 31.0 °F 34.0 °F 89% 29.42 in 10.0 mi NNE 8.1 mph 25.3 mph 0.01 in Rain Light Rain
9:14 AM 37.0 °F 30.4 °F 34.0 °F 89% 29.41 in 10.0 mi NNE 9.2 mph - 0.02 in Rain Light Rain
9:53 AM 37.9 °F 34.4 °F 35.1 °F 89% 29.40 in 10.0 mi West 4.6 mph - 0.03 in Rain Light Rain
10:04 AM 37.9 °F 33.5 °F 35.1 °F 89% 29.40 in 10.0 mi Variable 5.8 mph 17.3 mph 0.00 in Rain Light Rain
10:39 AM 39.0 °F 36.8 °F 35.1 °F 86% 29.40 in 9.0 mi Variable 3.5 mph - 0.01 in Rain Light Rain
10:53 AM 37.9 °F 34.4 °F 37.0 °F 97% 29.41 in 10.0 mi West 4.6 mph - 0.01 in Rain Light Rain
11:53 AM 39.0 °F - 36.0 °F 89% 29.42 in 5.0 mi Calm Calm - 0.04 in Rain Light Rain
12:14 PM 37.9 °F - 35.1 °F 89% 29.42 in 10.0 mi Calm Calm - 0.01 in Rain Light Rain
12:34 PM 39.9 °F 36.7 °F 37.0 °F 89% 29.41 in 10.0 mi Variable 4.6 mph - 0.01 in   Overcast
12:42 PM 41.0 °F - 37.0 °F 86% 29.42 in 10.0 mi Calm Calm - 0.01 in   Overcast
12:53 PM 41.0 °F 38.0 °F 37.0 °F 86% 29.42 in 10.0 mi Variable 4.6 mph - 0.01 in   Overcast
1:24 PM 41.0 °F 39.0 °F 37.9 °F 89% 29.42 in 10.0 mi NNW 3.5 mph - 0.00 in Rain Light Rain
1:51 PM 41.0 °F 38.0 °F 37.4 °F 87% 29.42 in 10.0 mi Variable 4.6 mph - 0.00 in   Overcast
1:53 PM 41.0 °F - 37.0 °F 86% 29.42 in 10.0 mi Calm Calm - 0.00 in   Overcast
2:53 PM 41.0 °F 39.0 °F 37.0 °F 86% 29.41 in 10.0 mi ENE 3.5 mph - N/A   Overcast
3:53 PM 41.0 °F 35.8 °F 39.0 °F 93% 29.39 in 10.0 mi NNE 8.1 mph - 0.02 in   Overcast
4:53 PM 41.0 °F 35.8 °F 39.0 °F 93% 29.38 in 10.0 mi NNE 8.1 mph - 0.00 in Rain Light Rain
5:53 PM 41.0 °F 39.0 °F 39.9 °F 96% 29.37 in 4.0 mi ENE 3.5 mph - 0.08 in Rain Light Rain
6:53 PM 41.0 °F - 39.9 °F 96% 29.36 in 8.0 mi Calm Calm - 0.02 in   Overcast
7:53 PM 42.1 °F - 39.9 °F 92% 29.37 in 7.0 mi Calm Calm - 0.02 in Rain Rain
8:11 PM 41.0 °F - 39.9 °F 96% 29.36 in 7.0 mi Calm Calm - 0.02 in Rain Light Rain
8:53 PM 41.0 °F - 39.9 °F 96% 29.37 in 10.0 mi Calm Calm - 0.02 in   Overcast
9:36 PM 41.0 °F 37.1 °F 39.9 °F 96% 29.37 in 10.0 mi Variable 5.8 mph - 0.00 in Rain Light Rain
9:53 PM 41.0 °F - 39.9 °F 96% 29.38 in 8.0 mi Calm Calm - 0.02 in Rain Light Rain
10:53 PM 41.0 °F - 39.0 °F 93% 29.37 in 10.0 mi Calm Calm - 0.05 in Rain Light Rain
11:01 PM 41.0 °F 38.0 °F 39.0 °F 93% 29.37 in 10.0 mi NNE 4.6 mph - 0.00 in Rain Light Rain
11:53 PM 41.0 °F - 39.0 °F 93% 29.39 in 6.0 mi Calm Calm - 0.05 in Rain Rain